National Oceanic Atmosphere Administration National Weather Service Headquarters National Weather Service Headquarters
NOAA logo WFO Anchorage Scalable transition graphic NWS logo
Transition from title bar to navgation bar   Aviation Weather 13 AKST 
blankspace Home   |   Mobile   |   Social Media   |   Mesonet   |   Surface Map   |   Radar   |   Submit Storm Reports   |   News =22 GMT 

LocalForecast by City, St or Zip Code

spacer

Forecasts/Products
  Public
  Forecast Discussion
    - With Glossary
  Aviation
  Marine
  Hydrology(RFC)
  Rivers & Lakes AHPS
  Ice Desk
  TV Weather
  Fire Weather
  Avalanche
  Travel 511
  Graphical
  xml logo RSS Feeds
  Marine FTPMail

spacer

Data
  Mesonet
  Model Graphics
  Local Model
  Observations
  Marine Obs
  Satellite/Radar
  Vent Factor
  Soaring Index
  Weather Links

spacer

Climate
  PAFC Climate
  Interactive Climate
  PAFC Records
  Local
  National
  More

spacer

Outreach
  About Us
  Community Outreach
  Kids' Page
  Tour/Speaker Request
  Weather Classroom
  Social Media

spacer

Reports
  COOP Observers
  Local Storm Reports
  Spotter Page
  Submit a Storm Report

spacer

Miscellaneous
  Archived Alaska Weather Stories
  Student Career Opportunities
  Research Papers

spacer

Print Friendly/
Low Bandwidth

  Public Forecasts
  Marine Forecasts

spacer

Contact Us
  mailto pafcweb

spacer

Facebook Follow the National Weather Service in Alaska on Twitter
USA.gov is the U.S. government's official web portal to all federal, state and local government web resources and services.


 ICAO ID:   AAWU Graphics

Internet access to TAFs and METAR observations is for planning purposes only. We can not guarantee the timeliness of internet products. Before flying please get a formal pilot briefing (1-800-992-7433) and ALWAYS file a Flight Plan!Pilot briefings are provided to licensed aircraft pilots, ONLY! Others may not use the above number to obtain weather information.

Check out the Key to TAFs and METARs for help with decoding the information.

A 12 hour summary of TAFs can be found here.

PAKN TAF
PAKN 251733Z 2518/2618  13005KT P6SM SCT015 BKN040
      TEMPO 2518/2520 3SM BR
     FM261200 10005KT P6SM VCFG SCT003 BKN200=


METAR PAKN 252154Z 12004KT 10SM FEW003 SCT045 BKN090 BKN200 01/00
 A3023 RMK AO2 SLP239 T00110000=
METAR PAKN 252154Z 12004KT 10SM FEW003 SCT045 BKN090 BKN200 01/00
     A3023=
METAR PAKN 252054Z 00000KT 10SM FEW003 FEW030 BKN045 00/M01 A3023
 RMK AO2 SLP238 I3000 T00001011 51022=
METAR PAKN 252054Z 00000KT 10SM FEW003 FEW030 BKN045 00/M01 A3023=
METAR PAKN 251954Z 15004KT 10SM FEW003 FEW030 BKN045 M01/M02 A3022 RMK
     AO2 SLP233 T10061017=
METAR PAKN 251954Z 15004KT 10SM FEW003 FEW030 BKN045 M01/M02 A3022=
SPECI PAKN 251947Z 12004KT 10SM FEW003 FEW030 BKN045 M01/M02 A3021 RMK
     AO2 T10111017=
PAKN 251947Z 12004KT 10SM FEW003 FEW030 BKN045 M01/M02 A3021=
METAR PAKN 251854Z 10004KT 8SM FEW030 BKN050 M03/M03 A3018=
SPECI PAKN 251849Z 10004KT 6SM BR FEW030 BKN050 M03/M03 A3018 RMK AO2
     I1000=
PAKN 251849Z 10004KT 6SM BR FEW030 BKN050 M03/M03 A3018=
SPECI PAKN 251818Z 00000KT 2 1/2SM BR FEW001 BKN050 M02/M03 A3018 RMK
     AO2 T10221028=
PAKN 251818Z 00000KT 2 1/2SM BR FEW001 BKN050 M02/M03 A3018=
SPECI PAKN 251808Z 00000KT 1SM BR FEW001 OVC055 M03/M04 A3017 RMK AO2
     T10281039=
PAKN 251808Z 00000KT 1SM BR FEW001 OVC055 M03/M04 A3017=


National Weather Service
Anchorage Forecast Office
6930 Sand Lake Road
Anchorage, Ak 99502
(907) 266-5105 M-F/7-5pm
About Us
Career Opportunities
Glossary
Disclaimer
Privacy Policy
Credits
Alaska Weather Information Line:
1-800-472-0391